Location: Lone Pine Community Mobile Home Park
(42.7367°N, 73.8567°W)
Time: 06:10:55
(UTC+00:00)

CSL-04 Rocket - Pass Details

Date: 29 October 2020
Orbit: 805 x 861 km, 98.9° (Epoch: 27 November)

Event Time Altitude Azimuth Distance (km) Brightness Sun altitude
Exits shadow 23:39:10 - 154° (SSE) 2,667 6.0 -20.3°
Reaches altitude 10° 23:39:38 10° 153° (SSE) 2,488 5.9 -20.4°
Maximum altitude 23:45:07 66° 72° (ENE) 929 3.6 -21.4°
Drops below altitude 10° 23:50:35 10° 351° (N) 2,483 6.2 -22.4°
Sets 23:52:57 0° 349° (N) 3,415 7.0 -22.9°
